QPF
0.01 0.01 0.00 0.00 0.00 0.00 0.00 0.00 0.00 0.00 0.00 0.00 0.00 0.00 0.00 0.00 0.00 0.00 0.00 0.00 0.00 0.00 0.00 0.00 0.00 0.00 0.00 0.00 0.00 0.00 0.00 0.00 0.00 0.00 0.00 0.00 0.00 0.00 0.00 0.00 0.00 0.00 0.00 0.00
0.01 0.00 0.00 0.00 0.00 0.00 0.00 0.00 0.00 0.00 0.00 0.00 0.00 0.00 0.00 0.00 0.00 0.00 0.00 0.00 0.00 0.00 0.00 0.00 0.00 0.00 0.00 0.00 0.00 0.00 0.00 0.00 0.00 0.00 0.00 0.00 0.00 0.00 0.00 0.00 0.00 0.00 0.00 0.00
0.00 0.00 0.00 0.00 0.00 0.00 0.00 0.00 0.00 0.00 0.00 0.00 0.00 0.00 0.00 0.00 0.00 0.00 0.00 0.00 0.00 0.00 0.00 0.00 0.00 0.00 0.00 0.00 0.00 0.00 0.00 0.00 0.00 0.00 0.00 0.00 0.00 0.00 0.00 0.00 0.00 0.00 0.00 0.00
0.00 0.00 0.00 0.00 0.00 0.00 0.00 0.00 0.00 0.00 0.00 0.00 0.00 0.00 0.00 0.00 0.00 0.00 0.00 0.00 0.00 0.00 0.00 0.00 0.00 0.00 0.00 0.00 0.00 0.00 0.00 0.00 0.00 0.00 0.00 0.00 0.00 0.00 0.00 0.00 0.00 0.00 0.00 0.00
0.00 0.00 0.00 0.00 0.00 0.00 0.00 0.00 0.00 0.00 0.00 0.00 0.00 0.00 0.00 0.00 0.00 0.00 0.00 0.00 0.00 0.00 0.00 0.00 0.00 0.00 0.00 0.00 0.00 0.00 0.00 0.00 0.00 0.00 0.00 0.00 0.00 0.00 0.00 0.00 0.00 0.00 0.00 0.00
0.00 0.00 0.00 0.00 0.00 0.00 0.00 0.00 0.00 0.00 0.00 0.00 0.00 0.00 0.00 0.00 0.00 0.00 0.00 0.00 0.00 0.00 0.00 0.00 0.00 0.00 0.00 0.00 0.00 0.00 0.00 0.00 0.00 0.00 0.00 0.00 0.00 0.00 0.00 0.00 0.00 0.00 0.00 0.00
0.00 0.00 0.00 0.00 0.00 0.00 0.00 0.00 0.00 0.00 0.00 0.00 0.00 0.00 0.00 0.00 0.00 0.00 0.00 0.00 0.00 0.00 0.00 0.00 0.00 0.00 0.00 0.00 0.00 0.00 0.00 0.00 0.00 0.00 0.00 0.00 0.00 0.00 0.00 0.00 0.00 0.00 0.00 0.00
0.00 0.00 0.00 0.00 0.00 0.00 0.00 0.00 0.00 0.00 0.00 0.00 0.00 0.00 0.00 0.00 0.00 0.00 0.00 0.00 0.00 0.00 0.00 0.00 0.00 0.00 0.00 0.00 0.00 0.00 0.00 0.00 0.00 0.00 0.00 0.00 0.00 0.00 0.00 0.00 0.00 0.00 0.00 0.00
0.00 0.00 0.00 0.00 0.00 0.00 0.00 0.00 0.00 0.00 0.00 0.00 0.00 0.00 0.00 0.00 0.00 0.00 0.00 0.00 0.00 0.00 0.00 0.00 0.00 0.00 0.00 0.00 0.00 0.00 0.00 0.00 0.00 0.00 0.00 0.00 0.00 0.00 0.00 0.00 0.00 0.00 0.00 0.00
0.00 0.00 0.00 0.00 0.00 0.00 0.00 0.00 0.00 0.00 0.00 0.00 0.00 0.00 0.00 0.00 0.00 0.00 0.00 0.00 0.00 0.00 0.00 0.00 0.00 0.00 0.00 0.00 0.00 0.00 0.00 0.00 0.00 0.00 0.00 0.00 0.00 0.00 0.00 0.00 0.00 0.00 0.00 0.00
0.00 0.00 0.00 0.00 0.00 0.00 0.00 0.00 0.00 0.00 0.00 0.00 0.00 0.00 0.00 0.00 0.00 0.00 0.00 0.00 0.00 0.00 0.00 0.00 0.00 0.00 0.00 0.00 0.00 0.00 0.00 0.00 0.00 0.00 0.00 0.00 0.00 0.00 0.00 0.00 0.00 0.00 0.00 0.00
0.00 0.00 0.00 0.00 0.00 0.00 0.00 0.00 0.00 0.00 0.00 0.00 0.00 0.00 0.00 0.00 0.00 0.00 0.00 0.00 0.00 0.00 0.00 0.00 0.00 0.00 0.00 0.00 0.00 0.00 0.00 0.00 0.00 0.00 0.00 0.00 0.00 0.00 0.00 0.00 0.00 0.00 0.00 0.00
0.00 0.00 0.00 0.00 0.00 0.00 0.00 0.00 0.00 0.00 0.00 0.00 0.00 0.00 0.00 0.00 0.00 0.00 0.00 0.00 0.00 0.00 0.00 0.00 0.00 0.00 0.00 0.00 0.00 0.00 0.00 0.00 0.00 0.00 0.00 0.00 0.00 0.00 0.00 0.00 0.00 0.00 0.00 0.00
0.00 0.00 0.00 0.00 0.00 0.00 0.00 0.00 0.00 0.00 0.00 0.00 0.00 0.00 0.00 0.00 0.00 0.00 0.00 0.00 0.00 0.00 0.00 0.00 0.00 0.00 0.00 0.00 0.00 0.00 0.00 0.00 0.00 0.00 0.00 0.00 0.00 0.00 0.00 0.00 0.00 0.00 0.00 0.00
0.00 0.00 0.00 0.00 0.00 0.00 0.00 0.00 0.00 0.00 0.00 0.00 0.00 0.00 0.00 0.00 0.00 0.00 0.00 0.00 0.00 0.00 0.00 0.00 0.00 0.00 0.00 0.00 0.00 0.00 0.00 0.00 0.00 0.00 0.00 0.00 0.00 0.00 0.00 0.00 0.00 0.00 0.00 0.00
0.00 0.00 0.00 0.00 0.00 0.00 0.00 0.00 0.00 0.00 0.00 0.00 0.00 0.00 0.00 0.00 0.00 0.00 0.00 0.00 0.00 0.00 0.00 0.00 0.00 0.00 0.00 0.00 0.00 0.00 0.00 0.00 0.00 0.00 0.00 0.00 0.00 0.00 0.00 0.00 0.00 0.00 0.00 0.00
0.00 0.00 0.00 0.00 0.00 0.00 0.00 0.00 0.00 0.00 0.00 0.00 0.00 0.00 0.00 0.00 0.00 0.00 0.00 0.00 0.00 0.00 0.00 0.00 0.00 0.00 0.00 0.00 0.00 0.00 0.00 0.00 0.00 0.00 0.00 0.00 0.00 0.00 0.00 0.00 0.00 0.00 0.00 0.00
0.00 0.00 0.00 0.00 0.00 0.00 0.00 0.00 0.00 0.00 0.00 0.00 0.00 0.00 0.00 0.00 0.00 0.00 0.00 0.00 0.00 0.00 0.00 0.00 0.00 0.00 0.00 0.00 0.00 0.00 0.00 0.00 0.00 0.00 0.00 0.00 0.00 0.00 0.00 0.00 0.00 0.00 0.00 0.00
0.00 0.00 0.00 0.00 0.00 0.00 0.00 0.00 0.00 0.00 0.00 0.00 0.00 0.00 0.00 0.00 0.00 0.00 0.00 0.00 0.00 0.00 0.00 0.00 0.00 0.00 0.00 0.00 0.00 0.00 0.00 0.00 0.00 0.00 0.00 0.00 0.00 0.00 0.00 0.00 0.00 0.00 0.00 0.00
0.00 0.00 0.00 0.00 0.00 0.00 0.00 0.00 0.00 0.00 0.00 0.00 0.00 0.00 0.00 0.00 0.00 0.00 0.00 0.00 0.00 0.00 0.00 0.00 0.00 0.00 0.00 0.00 0.00 0.00 0.00 0.00 0.00 0.00 0.00 0.00 0.00 0.00 0.00 0.00 0.00 0.00 0.00 0.00
0.00 0.00 0.00 0.00 0.00 0.00 0.00 0.00 0.00 0.00 0.00 0.00 0.00 0.00 0.00 0.00 0.00 0.00 0.00 0.00 0.00 0.00 0.00 0.00 0.00 0.00 0.00 0.00 0.00 0.00 0.00 0.00 0.00 0.00 0.00 0.00 0.00 0.00 0.00 0.00 0.00 0.00 0.00 0.00
0.00 0.00 0.00 0.00 0.00 0.00 0.00 0.00 0.00 0.00 0.00 0.00 0.00 0.00 0.00 0.00 0.00 0.00 0.00 0.00 0.00 0.00 0.00 0.00 0.00 0.00 0.00 0.00 0.00 0.00 0.00 0.00 0.00 0.00 0.00 0.00 0.00 0.00 0.00 0.00 0.00 0.00 0.00 0.00
0.00 0.00 0.00 0.00 0.00 0.00 0.00 0.00 0.00 0.00 0.00 0.00 0.00 0.00 0.00 0.00 0.00 0.00 0.00 0.00 0.00 0.00 0.00 0.00 0.00 0.00 0.00 0.00 0.00 0.00 0.00 0.00 0.00 0.00 0.00 0.00 0.00 0.00 0.00 0.00 0.00 0.00 0.00 0.00
0.00 0.00 0.00 0.00 0.00 0.00 0.00 0.00 0.00 0.00 0.00 0.00 0.00 0.00 0.00 0.00 0.00 0.00 0.00 0.00 0.00 0.00 0.00 0.00 0.00 0.00 0.00 0.00 0.00 0.00 0.00 0.00 0.00 0.00 0.00 0.00 0.00 0.00 0.00 0.00 0.00 0.00 0.00 0.00
0.00 0.00 0.00 0.00 0.00 0.00 0.00 0.00 0.00 0.00 0.00 0.00 0.00 0.00 0.00 0.00 0.00 0.00 0.00 0.00 0.00 0.00 0.00 0.00 0.00 0.00 0.00 0.00 0.00 0.00 0.00 0.00 0.00 0.00 0.00 0.00 0.00 0.00 0.00 0.00 0.00 0.00 0.00 0.00
0.00 0.00 0.00 0.00 0.00 0.00 0.00 0.00 0.00 0.00 0.00 0.00 0.00 0.00 0.00 0.00 0.00 0.00 0.00 0.00 0.00 0.00 0.00 0.00 0.00 0.00 0.00 0.00 0.00 0.00 0.00 0.00 0.00 0.00 0.00 0.00 0.00 0.00 0.00 0.00 0.00 0.00 0.00 0.00
0.00 0.00 0.00 0.00 0.00 0.00 0.00 0.00 0.00 0.00 0.00 0.00 0.00 0.00 0.00 0.00 0.00 0.00 0.00 0.00 0.00 0.00 0.00 0.00 0.00 0.00 0.00 0.00 0.00 0.00 0.00 0.00 0.00 0.00 0.00 0.00 0.00 0.00 0.00 0.00 0.00 0.00 0.00 0.00
MSLP
1014.00 1014.40 1014.79 1015.14 1015.41 1015.56 1015.57 1015.43 1015.13 1014.71 1014.21 1013.71 1013.27 1012.98 1012.87 1012.99 1013.32 1013.84 1014.49 1015.21 1015.90 1016.52 1017.01 1017.34 1017.52 1017.55 1017.49 1017.36 1017.22 1017.10 1017.02 1017.01 1017.05 1017.15 1017.27 1017.41 1017.56 1017.70 1017.82 1017.93 1018.02 1018.10 1018.18 1018.24
1013.96 1014.23 1014.44 1014.58 1014.64 1014.60 1014.46 1014.21 1013.88 1013.48 1013.06 1012.66 1012.35 1012.16 1012.15 1012.32 1012.67 1013.19 1013.82 1014.53 1015.24 1015.91 1016.48 1016.93 1017.25 1017.45 1017.54 1017.55 1017.51 1017.47 1017.43 1017.42 1017.44 1017.50 1017.59 1017.69 1017.80 1017.91 1018.02 1018.11 1018.19 1018.25 1018.30 1018.34
1014.15 1014.25 1014.25 1014.16 1013.99 1013.74 1013.44 1013.08 1012.70 1012.31 1011.93 1011.62 1011.40 1011.30 1011.35 1011.56 1011.93 1012.44 1013.06 1013.76 1014.49 1015.21 1015.87 1016.45 1016.92 1017.29 1017.54 1017.71 1017.81 1017.85 1017.87 1017.89 1017.91 1017.95 1018.00 1018.08 1018.16 1018.25 1018.33 1018.40 1018.46 1018.49 1018.52 1018.52
1014.47 1014.37 1014.15 1013.82 1013.42 1012.98 1012.51 1012.04 1011.60 1011.20 1010.86 1010.61 1010.47 1010.44 1010.54 1010.78 1011.15 1011.65 1012.26 1012.96 1013.71 1014.47 1015.22 1015.91 1016.53 1017.06 1017.48 1017.80 1018.03 1018.18 1018.27 1018.33 1018.37 1018.41 1018.45 1018.51 1018.58 1018.65 1018.72 1018.78 1018.81 1018.83 1018.82 1018.80
1014.75 1014.45 1014.01 1013.46 1012.86 1012.23 1011.62 1011.05 1010.57 1010.16 1009.86 1009.67 1009.59 1009.62 1009.77 1010.03 1010.41 1010.91 1011.51 1012.20 1012.96 1013.76 1014.57 1015.36 1016.10 1016.76 1017.32 1017.77 1018.12 1018.37 1018.55 1018.66 1018.74 1018.80 1018.86 1018.92 1018.99 1019.07 1019.14 1019.20 1019.23 1019.23 1019.20 1019.15
1014.79 1014.31 1013.69 1012.97 1012.20 1011.44 1010.73 1010.11 1009.60 1009.22 1008.96 1008.82 1008.81 1008.90 1009.09 1009.39 1009.78 1010.27 1010.86 1011.54 1012.30 1013.12 1013.97 1014.81 1015.63 1016.38 1017.05 1017.61 1018.05 1018.40 1018.65 1018.83 1018.96 1019.06 1019.16 1019.25 1019.36 1019.45 1019.54 1019.61 1019.65 1019.65 1019.61 1019.54
1014.48 1013.86 1013.11 1012.27 1011.41 1010.58 1009.83 1009.20 1008.71 1008.37 1008.17 1008.11 1008.17 1008.32 1008.57 1008.90 1009.31 1009.80 1010.38 1011.04 1011.78 1012.59 1013.44 1014.31 1015.16 1015.96 1016.68 1017.31 1017.83 1018.25 1018.57 1018.82 1019.01 1019.18 1019.33 1019.48 1019.62 1019.76 1019.88 1019.98 1020.03 1020.04 1020.00 1019.92
1013.78 1013.08 1012.26 1011.37 1010.49 1009.67 1008.95 1008.36 1007.93 1007.67 1007.55 1007.57 1007.70 1007.92 1008.22 1008.59 1009.02 1009.51 1010.07 1010.71 1011.42 1012.20 1013.02 1013.87 1014.71 1015.51 1016.26 1016.91 1017.48 1017.95 1018.33 1018.65 1018.91 1019.15 1019.36 1019.57 1019.77 1019.96 1020.12 1020.25 1020.32 1020.35 1020.31 1020.23
1012.76 1012.03 1011.21 1010.35 1009.52 1008.77 1008.13 1007.63 1007.30 1007.13 1007.10 1007.21 1007.42 1007.71 1008.06 1008.46 1008.90 1009.40 1009.94 1010.55 1011.21 1011.93 1012.70 1013.50 1014.30 1015.07 1015.80 1016.46 1017.05 1017.55 1017.99 1018.37 1018.70 1019.00 1019.28 1019.55 1019.81 1020.04 1020.24 1020.39 1020.48 1020.51 1020.48 1020.41
1011.56 1010.85 1010.09 1009.32 1008.59 1007.96 1007.44 1007.06 1006.84 1006.77 1006.83 1007.02 1007.29 1007.64 1008.03 1008.46 1008.91 1009.40 1009.92 1010.49 1011.10 1011.76 1012.46 1013.18 1013.92 1014.64 1015.33 1015.98 1016.57 1017.10 1017.58 1018.01 1018.40 1018.77 1019.11 1019.43 1019.73 1019.99 1020.20 1020.36 1020.46 1020.49 1020.46 1020.38
1010.33 1009.68 1009.02 1008.38 1007.79 1007.30 1006.92 1006.67 1006.55 1006.57 1006.71 1006.95 1007.27 1007.65 1008.07 1008.51 1008.96 1009.44 1009.93 1010.46 1011.02 1011.61 1012.23 1012.88 1013.55 1014.21 1014.86 1015.48 1016.07 1016.62 1017.12 1017.60 1018.04 1018.45 1018.84 1019.19 1019.51 1019.78 1020.00 1020.15 1020.23 1020.25 1020.21 1020.12
1009.22 1008.66 1008.11 1007.61 1007.17 1006.82 1006.57 1006.43 1006.41 1006.49 1006.68 1006.95 1007.29 1007.67 1008.09 1008.52 1008.97 1009.42 1009.89 1010.37 1010.88 1011.41 1011.96 1012.54 1013.14 1013.74 1014.35 1014.94 1015.52 1016.08 1016.61 1017.12 1017.60 1018.04 1018.46 1018.83 1019.14 1019.40 1019.60 1019.72 1019.78 1019.77 1019.70 1019.61
1008.26 1007.80 1007.38 1007.02 1006.72 1006.49 1006.35 1006.29 1006.33 1006.45 1006.66 1006.93 1007.26 1007.63 1008.03 1008.44 1008.87 1009.30 1009.73 1010.17 1010.63 1011.10 1011.59 1012.11 1012.64 1013.19 1013.76 1014.33 1014.89 1015.46 1016.01 1016.54 1017.04 1017.51 1017.93 1018.30 1018.60 1018.84 1018.99 1019.08 1019.10 1019.06 1018.98 1018.87
1007.47 1007.10 1006.80 1006.55 1006.36 1006.24 1006.18 1006.19 1006.26 1006.40 1006.60 1006.85 1007.16 1007.50 1007.86 1008.25 1008.64 1009.04 1009.44 1009.84 1010.25 1010.67 1011.10 1011.56 1012.04 1012.54 1013.06 1013.60 1014.16 1014.73 1015.28 1015.83 1016.34 1016.82 1017.24 1017.59 1017.87 1018.07 1018.19 1018.23 1018.22 1018.15 1018.05 1017.95
1006.78 1006.50 1006.29 1006.15 1006.05 1006.01 1006.02 1006.06 1006.15 1006.29 1006.48 1006.71 1006.98 1007.29 1007.62 1007.97 1008.33 1008.70 1009.06 1009.43 1009.79 1010.15 1010.53 1010.92 1011.34 1011.79 1012.27 1012.78 1013.32 1013.87 1014.43 1014.97 1015.49 1015.95 1016.36 1016.69 1016.94 1017.11 1017.20 1017.21 1017.17 1017.09 1017.00 1016.90
1006.16 1005.96 1005.83 1005.76 1005.75 1005.77 1005.82 1005.90 1006.01 1006.15 1006.32 1006.53 1006.78 1007.06 1007.37 1007.69 1008.03 1008.36 1008.69 1009.00 1009.31 1009.62 1009.93 1010.26 1010.62 1011.01 1011.43 1011.90 1012.41 1012.93 1013.47 1014.00 1014.50 1014.95 1015.34 1015.64 1015.87 1016.01 1016.07 1016.06 1016.01 1015.93 1015.86 1015.79
1005.60 1005.46 1005.40 1005.40 1005.45 1005.52 1005.62 1005.73 1005.87 1006.02 1006.20 1006.41 1006.65 1006.92 1007.21 1007.52 1007.83 1008.13 1008.42 1008.69 1008.94 1009.18 1009.43 1009.68 1009.96 1010.28 1010.64 1011.05 1011.50 1011.98 1012.48 1012.97 1013.44 1013.87 1014.23 1014.50 1014.70 1014.82 1014.86 1014.85 1014.81 1014.74 1014.69 1014.66
1005.14 1005.06 1005.06 1005.12 1005.22 1005.34 1005.49 1005.64 1005.80 1005.99 1006.19 1006.42 1006.67 1006.95 1007.24 1007.53 1007.82 1008.10 1008.35 1008.57 1008.76 1008.94 1009.10 1009.28 1009.48 1009.71 1010.00 1010.33 1010.71 1011.13 1011.57 1012.01 1012.43 1012.81 1013.12 1013.37 1013.54 1013.63 1013.67 1013.65 1013.61 1013.57 1013.54 1013.54
1004.90 1004.87 1004.91 1005.01 1005.15 1005.32 1005.51 1005.70 1005.91 1006.14 1006.38 1006.64 1006.92 1007.21 1007.51 1007.80 1008.08 1008.32 1008.54 1008.71 1008.84 1008.95 1009.04 1009.13 1009.25 1009.40 1009.59 1009.84 1010.13 1010.47 1010.84 1011.21 1011.56 1011.88 1012.14 1012.34 1012.47 1012.53 1012.55 1012.52 1012.49 1012.45 1012.44 1012.46
1004.95 1004.95 1005.02 1005.15 1005.33 1005.53 1005.75 1005.99 1006.24 1006.50 1006.78 1007.08 1007.38 1007.69 1008.00 1008.29 1008.55 1008.78 1008.96 1009.08 1009.16 1009.21 1009.23 1009.25 1009.29 1009.35 1009.46 1009.62 1009.83 1010.08 1010.35 1010.64 1010.91 1011.15 1011.34 1011.48 1011.56 1011.58 1011.56 1011.52 1011.46 1011.42 1011.40 1011.42
1005.35 1005.37 1005.45 1005.59 1005.77 1005.99 1006.24 1006.50 1006.77 1007.07 1007.37 1007.69 1008.01 1008.33 1008.64 1008.93 1009.17 1009.37 1009.52 1009.61 1009.65 1009.65 1009.62 1009.58 1009.55 1009.55 1009.58 1009.66 1009.78 1009.94 1010.12 1010.31 1010.49 1010.65 1010.76 1010.82 1010.83 1010.80 1010.74 1010.65 1010.57 1010.49 1010.45 1010.43
1006.07 1006.08 1006.15 1006.28 1006.46 1006.67 1006.91 1007.18 1007.46 1007.76 1008.07 1008.38 1008.70 1009.02 1009.31 1009.58 1009.81 1009.99 1010.11 1010.17 1010.18 1010.15 1010.09 1010.02 1009.95 1009.89 1009.87 1009.88 1009.93 1010.00 1010.10 1010.19 1010.28 1010.34 1010.36 1010.35 1010.28 1010.19 1010.06 1009.93 1009.79 1009.67 1009.58 1009.51
1006.99 1006.98 1007.03 1007.13 1007.28 1007.47 1007.68 1007.93 1008.19 1008.46 1008.75 1009.05 1009.34 1009.63 1009.90 1010.13 1010.34 1010.49 1010.59 1010.64 1010.64 1010.59 1010.52 1010.43 1010.34 1010.26 1010.20 1010.16 1010.15 1010.15 1010.17 1010.18 1010.18 1010.15 1010.09 1009.99 1009.86 1009.69 1009.51 1009.32 1009.13 1008.96 1008.81 1008.68
1007.96 1007.93 1007.94 1008.00 1008.11 1008.26 1008.43 1008.63 1008.85 1009.08 1009.33 1009.58 1009.83 1010.07 1010.29 1010.49 1010.66 1010.79 1010.88 1010.91 1010.91 1010.87 1010.80 1010.72 1010.62 1010.53 1010.45 1010.38 1010.32 1010.27 1010.22 1010.16 1010.08 1009.98 1009.85 1009.68 1009.48 1009.26 1009.03 1008.79 1008.56 1008.33 1008.13 1007.95
1008.81 1008.75 1008.73 1008.75 1008.82 1008.92 1009.04 1009.19 1009.35 1009.53 1009.72 1009.92 1010.11 1010.29 1010.47 1010.63 1010.76 1010.86 1010.93 1010.96 1010.96 1010.92 1010.87 1010.79 1010.70 1010.61 1010.52 1010.43 1010.34 1010.25 1010.14 1010.03 1009.89 1009.73 1009.55 1009.33 1009.10 1008.84 1008.57 1008.30 1008.04 1007.79 1007.55 1007.33
1009.41 1009.33 1009.29 1009.28 1009.31 1009.37 1009.45 1009.55 1009.67 1009.79 1009.92 1010.06 1010.19 1010.32 1010.45 1010.56 1010.65 1010.72 1010.77 1010.79 1010.79 1010.76 1010.71 1010.64 1010.55 1010.46 1010.36 1010.25 1010.14 1010.01 1009.88 1009.72 1009.55 1009.36 1009.14 1008.90 1008.65 1008.38 1008.10 1007.83 1007.56 1007.29 1007.04 1006.79
1009.69 1009.61 1009.57 1009.55 1009.56 1009.60 1009.65 1009.72 1009.79 1009.88 1009.96 1010.05 1010.14 1010.22 1010.30 1010.36 1010.42 1010.46 1010.48 1010.48 1010.46 1010.43 1010.37 1010.30 1010.21 1010.10 1009.99 1009.86 1009.73 1009.58 1009.42 1009.24 1009.05 1008.84 1008.62 1008.38 1008.13 1007.87 1007.60 1007.34 1007.07 1006.81 1006.55 1006.30
Thickness
5693 5701 5701 5702 5702 5697 5695 5695 5690 5702 5707 5723 5730 5732 5731 5727 5723 5719 5717 5716 5715 5713 5711 5710 5709 5709 5708 5708 5707 5706 5704 5702 5700 5699 5698 5697 5696 5695 5694 5693 5691 5690 5688 5687
5695 5702 5700 5700 5705 5703 5703 5704 5704 5711 5716 5733 5734 5730 5727 5724 5723 5721 5720 5719 5716 5714 5712 5710 5709 5708 5707 5705 5704 5703 5701 5699 5697 5696 5695 5693 5692 5691 5689 5688 5686 5685 5683 5682
5681 5692 5697 5692 5708 5708 5709 5714 5714 5711 5726 5731 5728 5730 5732 5730 5728 5728 5725 5722 5719 5717 5715 5712 5710 5708 5706 5704 5702 5700 5698 5696 5694 5693 5691 5689 5689 5686 5684 5682 5681 5679 5678 5676
5676 5685 5677 5704 5724 5724 5720 5724 5726 5731 5735 5735 5739 5741 5740 5738 5735 5732 5729 5725 5722 5718 5715 5712 5709 5707 5705 5702 5699 5697 5695 5692 5691 5689 5687 5685 5683 5681 5679 5677 5675 5673 5671 5670
5668 5672 5682 5705 5722 5723 5718 5721 5733 5733 5736 5735 5734 5732 5732 5738 5738 5738 5734 5730 5726 5722 5717 5712 5708 5705 5702 5698 5695 5693 5691 5689 5687 5685 5683 5680 5678 5676 5673 5671 5669 5667 5665 5663
5665 5672 5674 5703 5728 5733 5726 5717 5739 5737 5735 5730 5729 5718 5731 5742 5740 5736 5732 5728 5724 5719 5714 5709 5706 5703 5699 5695 5692 5690 5689 5687 5684 5682 5679 5676 5673 5671 5668 5665 5663 5661 5658 5656
5663 5668 5681 5713 5725 5727 5705 5715 5741 5739 5737 5732 5733 5740 5746 5744 5740 5736 5731 5727 5722 5717 5713 5709 5704 5701 5696 5692 5690 5689 5687 5683 5680 5677 5674 5671 5668 5665 5662 5659 5656 5653 5651 5648
5659 5663 5680 5721 5719 5715 5722 5737 5740 5739 5738 5736 5738 5739 5740 5740 5737 5732 5727 5723 5719 5714 5710 5705 5702 5698 5694 5690 5689 5686 5682 5678 5675 5672 5670 5667 5662 5658 5655 5651 5647 5644 5641 5639
5680 5691 5710 5717 5720 5729 5731 5733 5736 5736 5737 5736 5733 5732 5733 5732 5730 5728 5724 5720 5716 5711 5705 5700 5697 5696 5691 5688 5684 5680 5676 5672 5669 5666 5662 5659 5655 5651 5647 5643 5639 5636 5632 5629
5679 5694 5706 5713 5719 5725 5729 5731 5735 5736 5736 5734 5730 5728 5726 5725 5723 5720 5718 5714 5710 5705 5700 5695 5692 5690 5688 5684 5679 5675 5670 5666 5662 5658 5654 5651 5647 5644 5639 5635 5631 5628 5625 5621
5679 5693 5702 5714 5717 5722 5726 5727 5730 5731 5731 5730 5727 5723 5721 5719 5717 5715 5712 5708 5705 5702 5697 5692 5687 5684 5681 5677 5673 5667 5663 5659 5654 5651 5647 5643 5639 5636 5633 5630 5627 5623 5619 5615
5680 5695 5696 5705 5715 5718 5719 5721 5723 5723 5722 5723 5723 5719 5716 5714 5712 5709 5705 5702 5698 5695 5691 5686 5682 5678 5674 5671 5667 5661 5655 5650 5646 5642 5638 5634 5631 5627 5626 5623 5621 5618 5615 5610
5689 5696 5696 5703 5708 5711 5712 5715 5717 5717 5717 5715 5714 5714 5711 5706 5704 5701 5698 5695 5692 5689 5685 5680 5676 5671 5668 5664 5659 5655 5650 5645 5639 5634 5630 5626 5622 5618 5615 5614 5612 5610 5607 5603
5684 5687 5690 5695 5698 5702 5704 5706 5707 5707 5707 5707 5706 5704 5702 5698 5695 5693 5691 5689 5686 5682 5677 5673 5668 5665 5661 5656 5651 5647 5642 5638 5632 5626 5622 5617 5613 5609 5605 5602 5599 5597 5597 5594
5677 5680 5682 5687 5689 5691 5693 5694 5694 5693 5694 5694 5694 5694 5692 5689 5687 5686 5683 5680 5676 5671 5667 5664 5660 5657 5653 5648 5643 5638 5633 5628 5623 5618 5613 5609 5604 5600 5595 5592 5589 5586 5584 5582
5669 5671 5673 5675 5677 5679 5680 5682 5682 5682 5683 5684 5683 5683 5683 5681 5679 5676 5673 5670 5665 5662 5659 5656 5653 5650 5645 5639 5634 5629 5624 5622 5616 5609 5604 5599 5594 5590 5585 5582 5579 5575 5572 5571
5656 5658 5660 5663 5666 5668 5670 5672 5673 5674 5674 5674 5674 5673 5671 5668 5665 5662 5660 5659 5657 5655 5652 5649 5646 5641 5636 5631 5626 5620 5615 5611 5608 5601 5594 5590 5585 5581 5577 5573 5569 5566 5564 5562
5649 5653 5655 5656 5657 5658 5660 5661 5662 5663 5663 5664 5663 5661 5659 5656 5654 5652 5650 5647 5644 5642 5640 5638 5635 5631 5626 5622 5617 5611 5605 5600 5595 5590 5585 5581 5576 5572 5568 5563 5560 5557 5554 5551
5637 5640 5643 5645 5648 5649 5649 5649 5650 5651 5652 5651 5650 5648 5647 5646 5644 5642 5638 5634 5632 5630 5629 5627 5625 5620 5615 5612 5607 5601 5595 5589 5584 5579 5575 5571 5567 5561 5557 5553 5549 5546 5542 5538
5623 5627 5629 5631 5634 5635 5635 5637 5637 5638 5638 5638 5637 5634 5632 5631 5630 5628 5624 5622 5622 5622 5621 5617 5613 5609 5605 5601 5597 5590 5585 5580 5574 5569 5563 5559 5554 5550 5546 5542 5538 5534 5530 5526
5607 5610 5613 5615 5617 5619 5620 5621 5622 5622 5623 5622 5622 5620 5619 5617 5616 5613 5610 5608 5610 5609 5607 5605 5600 5597 5593 5589 5585 5578 5573 5568 5563 5558 5553 5548 5543 5539 5534 5530 5526 5522 5518 5513
5590 5593 5595 5597 5599 5600 5602 5603 5605 5606 5606 5606 5606 5605 5603 5601 5600 5598 5598 5597 5598 5596 5593 5590 5587 5585 5582 5578 5572 5567 5562 5557 5552 5547 5541 5536 5531 5527 5523 5518 5513 5509 5505 5500
5573 5575 5578 5580 5581 5583 5585 5586 5587 5588 5589 5589 5589 5589 5588 5587 5585 5583 5583 5584 5583 5582 5580 5577 5575 5574 5570 5565 5559 5555 5550 5545 5540 5535 5530 5525 5520 5515 5510 5506 5501 5496 5491 5486
5557 5559 5561 5563 5565 5566 5567 5568 5569 5571 5571 5572 5572 5573 5572 5571 5570 5570 5570 5571 5570 5569 5566 5564 5562 5560 5556 5550 5546 5541 5537 5532 5528 5523 5518 5513 5507 5502 5497 5492 5487 5483 5478 5473
5540 5542 5544 5546 5547 5548 5549 5551 5553 5554 5554 5555 5556 5557 5557 5557 5556 5556 5555 5555 5555 5554 5551 5550 5549 5546 5541 5536 5531 5527 5523 5518 5514 5509 5504 5499 5494 5488 5483 5478 5473 5469 5464 5459
5523 5525 5527 5529 5530 5531 5532 5534 5535 5536 5537 5538 5539 5540 5540 5540 5540 5540 5540 5539 5539 5538 5535 5533 5530 5528 5524 5520 5516 5512 5508 5504 5500 5495 5490 5485 5480 5475 5470 5465 5460 5455 5451 5446
5506 5508 5510 5512 5514 5515 5516 5518 5519 5520 5521 5522 5522 5524 5524 5524 5524 5523 5523 5523 5521 5520 5519 5516 5514 5511 5508 5504 5501 5497 5493 5488 5484 5480 5475 5470 5465 5461 5456 5452 5447 5443 5438 5433